Regional Weather Roundup
Issued by NWS

Home | Current Version | Previous Version | Text Only | Print | Product List | Glossary Off
Versions: 1 2 3 4 5 6 7 8 9 10 11 12 13 14 15 16 17 18 19 20 21 22 23 24 25 26 27 28 29 30 31 32 33 34 35 36 37 38 39 40 41 42 43 44 45 46 47 48 49 50

000
ASUS43 KFSD 272310
RWRSD

WEATHER ROUNDUP FOR SOUTH DAKOTA
NATIONAL WEATHER SERVICE SIOUX FALLS SD
600 PM CDT SUN MAY 27 2018

NOTE: "FAIR" INDICATES FEW OR NO CLOUDS BELOW 12,000 FEET WITH NO
SIGNIFICANT WEATHER AND/OR OBSTRUCTIONS TO VISIBILITY.


SDZ001>005-009-010-012>017-280000-
NORTHWEST AND NORTH CENTRAL SOUTH DAKOTA

CITY           SKY/WX    TMP DP  RH WIND       PRES   REMARKS
BUFFALO          N/A     80  54  40 N15G24    29.88R
FAITH            N/A     80  62  54 N18       29.85R
MOBRIDGE       SUNNY     84  65  52 N22G31    29.77R
$$

SDZ012>016-024>037-041>051-057-063-072>074-280000-
SOUTHWEST AND SOUTH CENTRAL SOUTH DAKOTA

CITY           SKY/WX    TMP DP  RH WIND       PRES   REMARKS
RAPID CTY ARPT CLOUDY    77  59  53 N17       29.90R
PIERRE         PTSUNNY   87  65  47 NW14      29.74R
CUSTER         MOSUNNY   73  46  38 NE16G30   30.00R
ELLSWORTH AFB  CLOUDY    79  59  50 N14       29.90R
PHILIP         MOSUNNY   83  66  56 N17       29.81R
PINE RIDGE     CLOUDY    80  64  58 NE14      29.86S
SPEARFISH      FAIR      75  54  46 NE14      29.95F
WINNER         FAIR      92  64  39 SW10      29.76S
$$

SDZ004>011-016>023-039-040-280000-
NORTHEAST SOUTH DAKOTA

CITY           SKY/WX    TMP DP  RH WIND       PRES   REMARKS
ABERDEEN       SUNNY    100  59  25 SW18G29   29.69S HX 100
WATERTOWN      SUNNY     93  55  27 S20G31    29.75F
BROOKINGS      PTSUNNY   96  61  31 S12       29.78S HX  96
SISSETON         N/A     96  63  33 SW8       29.69F HX  97
$$

SDZ017-020-022-023-036>040-048>070-280000-
SOUTHEAST SOUTH DAKOTA

CITY           SKY/WX    TMP DP  RH WIND       PRES   REMARKS
SIOUX FALLS    PTSUNNY   92  62  36 S12       29.77F
HURON          MOSUNNY   95  56  26 S15G30    29.72R
CHAMBERLAIN    MOSUNNY   96  61  31 SW16G22   29.73F HX  96
MITCHELL       MOSUNNY   94  59  31 S15G29    29.75S
YANKTON        MOSUNNY   97  56  25 S18G24    29.78F HX  95
$$

ABBREVIATIONS USED IN REMARKS
   TC - TEMPERATURE IN CELSIUS
  WCI - WIND CHILL INDEX
   HX - HEAT INDEX
  VSB - VISIBILITY





USA.gov is the U.S. government's official web portal to all federal, state and local government web resources and services.